Location: Home
(42.5358°N, 72.7383°W)
Time: 04:27:41
(UTC-04:00)

IRIDIUM 152 - Pass Details

Date: 03 July 2022
Orbit: 776 x 779 km, 86.4° (Epoch: 16 August)

Event Time Altitude Azimuth Distance (km) Brightness Sun altitude
Exits shadow 04:07:06 - 174° (S) 3,206 ? -11.0°
Reaches altitude 10° 04:09:21 10° 172° (S) 2,324 ? -10.7°
Maximum altitude 04:14:31 69° 90° (E) 834 ? -10.0°
Drops below altitude 10° 04:19:43 10° 8° (N) 2,342 ? -9.3°
Sets 04:22:05 0° 6° (N) 3,274 ? -9.0°
